{"data":{"norad_id":67579,"intl_designator":"2026-016U","name":"STARLINK-36571","alt_names":[],"object_type":"PAYLOAD","status":"ACTIVE","operator":null,"country":"US","launch_date":"2026-01-25","launch_site_code":"AFWTR","launch_vehicle":null,"mission":null,"orbit_class":"UNKNOWN","rcs_meters":null,"size_class":null,"mass_kg":null,"dimensions":null,"purposes":["comms"],"wikipedia_slug":null,"has_3d_model":false,"image_url":null,"decayed_at":null,"tle_current":{"epoch":"2026-09-19T10:06:18.667296Z","epoch_age_seconds":165491,"freshness":"FRESH","line1":"1 67579U 26016U   26262.42104939  .00010910  00000+0  33978-3 0  9992","line2":"2 67579  97.2860 321.0766 0000925 115.0031 245.1308 15.33444370 36556","mean_motion":15.3344437,"eccentricity":9.25e-5,"inclination_deg":97.286,"raan_deg":321.0766,"arg_perigee_deg":115.0031,"mean_anomaly_deg":245.1308,"bstar":0.00033978,"rev_number":3655,"period_min":93.906243237242,"perigee_km":464.912008326,"apogee_km":466.17808950506,"semimajor_km":6843.6820489155,"source":"CELESTRAK","updated_at":"2026-09-20T09:00:43.578106Z"}}}